HELIOS 1B (25977 NORAD) Tracking and Keplerian Element Data

This shows tracking and keplerian element data for the satellite.

Feedback or suggestion? Click here.




ElementValue
Catalog25977
NameHELIOS 1B
Epoch Orbit56839
Epoch Day12.62330938
Epoch Year2024
RAAN238.8697
Inclination98.2661
Eccentricity0.0002458
Argument of Perigee90.7704
Mean Anonmoly269.379
Mean Motion14.83900505
Decay Rate1.496E-05
L11 25977U 99064A 24012.62330938 .00001496 00000+0 18706-3 0 9995
L22 25977 98.2661 238.8697 0002458 90.7704 269.3790 14.83900505568395



Live tracking and technical data element details for HELIOS 1B (NORAD 25977). HELIOS 1B can be tracked NOW for your location showing map with azimuth and elevation plus other details from your city location.







IsCatalogInMostPopularTable: catalog: 25977, numindb: 165
Update: records affected: 1



GetName: 25977 HELIOS 1B

Hit Count: updated at: Mon, 15 Apr 2024 00:28:22 GMT